{"data":{"norad_id":57168,"epoch":"2026-05-25T03:39:33.151392Z","epoch_age_seconds":58029,"freshness":"FRESH","line1":"1 57168U 23091C   26145.15246703  .00008415  00000+0  32854-3 0  9990","line2":"2 57168  97.5038 207.3758 0011583 179.8777 180.2466 15.26097359160749","mean_motion":15.26097359,"eccentricity":0.0011583,"inclination_deg":97.5038,"raan_deg":207.3758,"arg_perigee_deg":179.8777,"mean_anomaly_deg":180.2466,"bstar":0.00032854,"rev_number":16074,"period_min":94.35833117119,"perigee_km":479.53979210719,"apogee_km":495.44470882883,"semimajor_km":6865.629250468,"source":"CELESTRAK","updated_at":"2026-05-25T13:37:59.903664Z"}}